STARLINK-4770 (53849 NORAD) Tracking and Keplerian Element Data

This shows tracking and keplerian element data for the satellite.

Feedback or suggestion? Click here.




ElementValue
Catalog53849
NameSTARLINK-4770
Epoch Orbit130
Epoch Day324.91667824
Epoch Year2022
RAAN307.677
Inclination53.2175
Eccentricity0.0001269
Argument of Perigee68.6753
Mean Anonmoly128.1752
Mean Motion15.67419528
Decay Rate-0.01138352
L11 53849U 22114AH 22324.91667824 -.01138352 00000+0 -11392-1 0 9996
L22 53849 53.2175 307.6770 0001269 68.6753 128.1752 15.67419528 1305



Live tracking and technical data element details for STARLINK-4770 (NORAD 53849). STARLINK-4770 can be tracked NOW for your location showing map with azimuth and elevation plus other details from your city location.







IsCatalogInMostPopularTable: catalog: 53849, numindb: 1
Update: records affected: 1



GetName: 53849 STARLINK-4770

Hit Count: updated at: Mon, 28 Nov 2022 03:59:57 GMT